EW4538 Weather Reports


time (UTC)temp
F
wind
direction
speed
knots
gust
knots
rain 1hr
in
rain 24hr
in
rain mn
in
humidity
%
barometer
mb
20260905011805 86 144 6.1 8.7 0.00 0.01 0.01 57 1012.0
20260905011305 86 163 7.0 12.2 0.00 0.01 0.01 57 1011.9
20260905010804 87 155 7.0 12.2 0.00 0.01 0.01 56 1011.9
20260905010305 87 157 9.6 14.8 0.00 0.01 0.01 56 1011.8
20260905004805 87 149 7.0 13.0 0.00 0.01 0.01 54 1011.8
20260905003804 88 136 7.8 14.8 0.00 0.01 0.01 53 1011.8
20260905001804 90 164 7.0 15.6 0.00 0.01 0.01 39 1011.5
20260905001305 90 154 7.8 15.6 0.00 0.01 0.01 38 1011.4
20260905000804 90 160 9.6 15.6 0.00 0.01 0.01 38 1011.4
20260905000304 90 171 6.1 14.8 0.00 0.01 0.01 39 1011.3
20260904234804 91 156 7.0 13.0 0.00 0.01 0.01 38 1011.1
20260904234305 91 161 8.7 15.6 0.00 0.01 0.01 38 1011.1
20260904233805 91 158 12.2 20.0 0.00 0.01 0.01 38 1011.1
20260904231304 91 160 8.7 15.6 0.00 0.01 0.01 39 1011.0
20260904230805 92 159 11.3 15.6 0.00 0.01 0.01 38 1011.1
20260904230305 92 174 8.7 15.6 0.00 0.01 0.01 36 1011.1
20260904224304 92 168 6.1 14.8 0.00 0.01 0.01 42 1011.4
20260904223305 92 152 8.7 17.4 0.00 0.01 0.01 37 1011.4
20260904221804 92 162 8.7 14.8 0.00 0.01 0.01 41 1011.4
20260904220804 92 149 8.7 22.6 0.00 0.01 0.01 43 1011.4
20260904220304 92 137 10.4 22.6 0.00 0.01 0.01 43 1011.4
20260904214805 92 152 10.4 14.8 0.00 0.01 0.01 46 1011.5
20260904213804 92 156 11.3 20.9 0.00 0.01 0.01 47 1011.6
20260904213304 92 116 12.2 22.6 0.00 0.01 0.01 47 1011.6
20260904211805 92 111 11.3 17.4 0.00 0.01 0.01 50 1011.8
20260904211305 91 127 8.7 13.9 0.00 0.01 0.01 53 1011.8
20260904210805 91 164 7.8 13.9 0.00 0.01 0.01 53 1011.9
20260904210305 91 174 6.1 14.8 0.00 0.01 0.01 53 1012.0
20260904204805 92 165 9.6 14.8 0.00 0.01 0.01 46 1012.2
20260904204305 93 147 8.7 14.8 0.00 0.01 0.01 47 1012.2
20260904203805 92 162 7.8 13.0 0.00 0.01 0.01 47 1012.2
20260904203305 92 166 5.2 15.6 0.00 0.01 0.01 44 1012.3
20260904201804 92 146 8.7 14.8 0.00 0.01 0.01 43 1012.4
20260904201304 91 120 7.8 13.9 0.00 0.01 0.01 46 1012.5
20260904200805 90 153 7.8 14.8 0.00 0.01 0.01 47 1012.6
20260904200305 91 156 11.3 15.6 0.00 0.01 0.01 51 1012.6
20260904194804 90 175 5.2 13.9 0.00 0.01 0.01 52 1012.7
20260904194305 90 155 5.2 12.2 0.00 0.01 0.01 54 1012.7
20260904193804 90 160 7.0 13.0 0.00 0.01 0.01 53 1012.9
20260904193305 90 149 8.7 15.6 0.00 0.01 0.01 53 1012.9
20260904191804 90 155 11.3 17.4 0.00 0.01 0.01 55 1013.3
20260904191305 90 147 9.6 14.8 0.00 0.01 0.01 55 1013.3
20260904190805 90 162 8.7 15.6 0.00 0.01 0.01 57 1013.3
20260904190305 89 147 8.7 20.0 0.00 0.01 0.01 57 1013.4
20260904184805 88 148 10.4 17.4 0.00 0.01 0.01 59 1013.6
20260904184305 88 166 10.4 17.4 0.00 0.01 0.01 58 1013.7
20260904183805 88 148 10.4 14.8 0.00 0.01 0.01 60 1013.6
20260904183305 89 154 11.3 24.3 0.00 0.01 0.01 59 1013.6
20260904181805 87 151 11.3 15.6 0.00 0.01 0.01 63 1013.5
20260904181305 87 152 10.4 13.9 0.00 0.01 0.01 62 1013.6
20260904180805 88 155 13.0 17.4 0.00 0.01 0.01 60 1013.6
20260904180305 89 157 8.7 18.2 0.00 0.01 0.01 60 1013.7
20260904174805 89 144 7.8 15.6 0.00 0.01 0.01 57 1013.8
20260904174305 90 154 8.7 14.8 0.00 0.01 0.01 56 1014.0
20260904171804 89 143 5.2 11.3 0.00 0.01 0.01 56 1014.2
20260904171305 89 154 5.2 10.4 0.00 0.01 0.01 58 1014.2
20260904170804 89 163 2.6 7.0 0.00 0.01 0.01 59 1014.2
20260904170305 89 146 0.9 11.3 0.00 0.01 0.01 59 1014.2
20260904164804 88 178 6.1 8.7 0.00 0.01 0.01 61 1014.1
20260904164304 88 166 4.3 11.3 0.00 0.01 0.01 62 1014.1
20260904163805 87 182 4.3 12.2 0.00 0.01 0.01 64 1014.1
20260904161805 85 226 2.6 8.7 0.00 0.01 0.01 69 1014.3
20260904161304 85 212 4.3 8.7 0.00 0.01 0.01 68 1014.3
20260904154804 82 205 4.3 7.8 0.00 0.01 0.01 75 1014.3
20260904154305 82 228 1.7 5.2 0.00 0.01 0.01 76 1014.2
20260904153804 81 216 3.5 7.0 0.00 0.01 0.01 77 1014.2
20260904153305 81 167 2.6 7.8 0.00 0.01 0.01 78 1014.2
20260904151804 80 206 2.6 5.2 0.00 0.01 0.01 80 1014.1
20260904151305 79 169 3.5 7.8 0.00 0.01 0.01 80 1014.1
20260904150805 79 174 2.6 5.2 0.00 0.01 0.01 80 1014.2
20260904144805 79 168 4.3 10.4 0.01 0.01 0.01 80 1014.3
20260904144305 79 165 2.6 7.0 0.01 0.01 0.01 80 1014.2
20260904143805 79 164 2.6 10.4 0.01 0.01 0.01 81 1014.2
20260904143304 79 177 2.6 5.2 0.01 0.01 0.01 81 1014.2
20260904141805 79 166 1.7 4.3 0.01 0.01 0.01 81 1014.4
20260904141304 79 162 2.6 5.2 0.01 0.01 0.01 80 1014.3
20260904140805 79 175 1.7 5.2 0.01 0.01 0.01 80 1014.3
20260904140305 79 178 0.9 4.3 0.01 0.01 0.01 80 1014.3
20260904134805 79 151 1.7 7.0 0.00 0.00 0.00 80 1014.1
20260904133805 78 126 2.6 7.0 0.00 0.00 0.00 80 1014.1
20260904133304 78 146 2.6 8.7 0.00 0.00 0.00 80 1014.1
20260904131804 78 150 6.1 10.4 0.00 0.00 0.00 80 1014.1
20260904131305 78 153 5.2 8.7 0.00 0.00 0.00 80 1014.1
20260904130804 78 147 3.5 7.0 0.00 0.00 0.00 80 1014.1
20260904130305 78 120 1.7 8.7 0.00 0.00 0.00 80 1014.1
20260904124804 78 161 6.1 11.3 0.00 0.00 0.00 80 1013.7
20260904124305 78 154 6.1 10.4 0.00 0.00 0.00 80 1013.7
20260904123804 78 154 5.2 10.4 0.00 0.00 0.00 80 1013.6
20260904123304 78 149 5.2 10.4 0.00 0.00 0.00 80 1013.6
20260904121804 78 147 4.3 7.8 0.00 0.00 0.00 80 1013.5
20260904121305 78 142 4.3 8.7 0.00 0.00 0.00 80 1013.4
20260904120805 78 143 3.5 8.7 0.00 0.00 0.00 80 1013.3
20260904114805 78 159 5.2 8.7 0.00 0.00 0.00 80 1012.8
20260904114304 78 149 7.8 11.3 0.00 0.00 0.00 80 1012.7
20260904113805 78 150 6.1 13.0 0.00 0.00 0.00 80 1012.7
20260904111804 78 159 5.2 8.7 0.00 0.00 0.00 79 1012.5
20260904111305 78 169 5.2 8.7 0.00 0.00 0.00 79 1012.4
20260904110805 78 172 5.2 12.2 0.00 0.00 0.00 79 1012.4
20260904104804 79 155 6.1 11.3 0.00 0.00 0.00 79 1012.5
20260904104305 79 161 4.3 8.7 0.00 0.00 0.00 79 1012.4
20260904103804 79 152 6.1 8.7 0.00 0.00 0.00 79 1012.4
20260904103304 79 147 5.2 10.4 0.00 0.00 0.00 79 1012.3
20260904101804 79 172 4.3 8.7 0.00 0.00 0.00 78 1012.2
20260904101305 79 170 6.1 12.2 0.00 0.00 0.00 78 1012.2
20260904100304 79 150 4.3 11.3 0.00 0.00 0.00 78 1012.2
20260904094305 79 164 5.2 11.3 0.00 0.00 0.00 78 1012.1
20260904093805 79 168 4.3 8.7 0.00 0.00 0.00 78 1012.1
20260904091804 79 170 5.2 10.4 0.00 0.00 0.00 77 1012.0
20260904091304 79 168 6.1 10.4 0.00 0.00 0.00 77 1012.0
20260904090305 79 183 4.3 10.4 0.00 0.00 0.00 77 1012.1
20260904084805 79 156 5.2 10.4 0.00 0.00 0.00 77 1012.2
20260904083804 79 166 5.2 8.7 0.00 0.00 0.00 77 1012.2
20260904083304 79 170 6.1 11.3 0.00 0.00 0.00 77 1012.2
20260904081805 79 175 5.2 12.2 0.00 0.00 0.00 77 1012.3
20260904081304 79 159 6.1 13.9 0.00 0.00 0.00 77 1012.3
20260904080804 79 178 5.2 8.7 0.00 0.00 0.00 77 1012.3
20260904080304 79 162 6.1 10.4 0.00 0.00 0.00 77 1012.2
20260904074805 79 163 6.1 12.2 0.00 0.00 0.00 76 1012.2
20260904074305 79 162 8.7 12.2 0.00 0.00 0.00 76 1012.2
20260904073304 79 168 7.8 13.9 0.00 0.00 0.00 76 1012.3
20260904071804 80 171 7.8 15.6 0.00 0.00 0.00 76 1012.3
20260904070805 80 170 8.7 13.9 0.00 0.00 0.00 75 1012.4
20260904070305 80 174 6.1 12.2 0.00 0.00 0.00 75 1012.4
20260904064805 80 178 7.8 11.3 0.00 0.00 0.00 75 1012.6
20260904064304 79 169 5.2 11.3 0.00 0.00 0.00 75 1012.6
20260904063804 79 156 5.2 8.7 0.00 0.00 0.00 75 1012.6
20260904063304 79 180 4.3 14.8 0.00 0.00 0.00 75 1012.6
20260904061304 80 162 7.0 13.0 0.00 0.00 0.00 74 1012.5
20260904060304 80 159 8.7 15.6 0.00 0.00 0.00 74 1012.5
20260904053805 80 156 7.0 12.2 0.00 0.00 0.00 74 1012.3
20260904051804 80 152 9.6 15.6 0.00 0.00 0.00 73 1012.2
20260904051304 80 158 9.6 18.2 0.00 0.00 0.00 73 1012.1
20260904050804 80 153 8.7 13.0 0.00 0.00 0.00 73 1012.1
20260904044804 80 156 7.8 13.0 0.00 0.00 0.00 72 1012.2
20260904044305 80 165 11.3 15.6 0.00 0.00 0.00 72 1012.2
20260904043805 80 158 7.8 17.4 0.00 0.00 0.00 71 1012.2
20260904043304 80 153 7.8 15.6 0.00 0.00 0.00 71 1012.1
20260904041804 81 158 7.0 13.0 0.00 0.00 0.00 71 1012.2
20260904040304 81 151 10.4 14.8 0.00 0.00 0.00 71 1012.0
20260904034804 81 155 9.6 15.6 0.00 0.00 0.00 70 1011.9
20260904034305 81 160 8.7 15.6 0.00 0.00 0.00 70 1011.9
20260904033804 81 146 10.4 15.6 0.00 0.00 0.00 70 1011.8
20260904033304 81 149 11.3 20.9 0.00 0.00 0.00 69 1011.8
20260904031804 82 150 14.8 20.9 0.00 0.00 0.00 68 1011.6
20260904031304 82 147 11.3 18.2 0.00 0.00 0.00 68 1011.6
20260904030805 82 140 12.2 18.2 0.00 0.00 0.00 67 1011.6
20260904030304 82 142 10.4 20.0 0.00 0.00 0.00 67 1011.6
20260904024805 83 147 11.3 17.4 0.00 0.00 0.00 66 1011.5
20260904024305 83 142 10.4 17.4 0.00 0.00 0.00 65 1011.4
20260904023805 83 143 13.9 18.2 0.00 0.00 0.00 65 1011.3
20260904023304 83 150 8.7 17.4 0.00 0.00 0.00 65 1011.2
20260904021805 84 151 10.4 17.4 0.00 0.00 0.00 64 1010.9
20260904021305 84 138 8.7 17.4 0.00 0.00 0.00 63 1010.9
20260904020804 84 125 10.4 15.6 0.00 0.00 0.00 63 1010.9
20260904020305 84 152 13.0 21.7 0.00 0.00 0.00 63 1010.9
20260904014804 84 152 10.4 17.4 0.00 0.00 0.00 62 1010.7
20260904014304 85 140 10.4 17.4 0.00 0.00 0.00 62 1010.7
20260904013805 85 153 9.6 13.9 0.00 0.00 0.00 62 1010.7